DW2217 Weather Reports


Display with metric or nautical units.
time (UTC)temp
F
wind
direction
speed
MPH
gust
MPH
rain 1hr
in
rain 24hr
in
rain mn
in
humidity
%
barometer
mb
20260505184027 81 211 6.0 9.0 0.00 0.00 0.00 35 1003.4
20260505183524 80 199 9.0 10.0 0.00 0.00 0.00 35 1003.5
20260505183022 80 231 5.0 14.0 0.00 0.00 0.00 36 1003.5
20260505182518 80 230 11.0 15.0 0.00 0.00 0.00 34 1003.6
20260505182015 80 222 11.0 14.0 0.00 0.00 0.00 36 1003.7
20260505181511 82 206 8.0 10.0 0.00 0.00 0.00 35 1003.7
20260505181009 81 223 7.0 10.0 0.00 0.00 0.00 36 1003.6
20260505180504 81 210 10.0 14.0 0.00 0.00 0.00 35 1003.7
20260505180003 80 221 9.0 12.0 0.00 0.00 0.00 36 1003.7
20260505175457 81 210 5.0 12.0 0.00 0.00 0.00 36 1004.0
20260505174954 81 140 4.0 7.0 0.00 0.00 0.00 35 1003.9
20260505174451 81 230 10.0 10.0 0.00 0.00 0.00 35 1004.1
20260505173947 80 243 9.0 10.0 0.00 0.00 0.00 35 1004.0
20260505173444 80 170 8.0 10.0 0.00 0.00 0.00 36 1004.2
20260505172941 80 204 8.0 14.0 0.00 0.00 0.00 36 1004.1
20260505172439 80 208 7.0 10.0 0.00 0.00 0.00 37 1004.1
20260505171938 79 233 6.0 12.0 0.00 0.00 0.00 37 1004.1
20260505171436 80 232 7.0 10.0 0.00 0.00 0.00 37 1004.2
20260505170932 79 232 8.0 12.0 0.00 0.00 0.00 38 1004.5
20260505170429 79 268 10.0 14.0 0.00 0.00 0.00 38 1004.6
20260505165924 79 237 10.0 10.0 0.00 0.00 0.00 38 1004.8
20260505165421 78 237 5.0 9.0 0.00 0.00 0.00 40 1004.6
20260505164916 79 201 2.0 7.0 0.00 0.00 0.00 38 1004.8
20260505164413 77 241 7.0 10.0 0.00 0.00 0.00 39 1004.8
20260505163911 77 191 3.0 9.0 0.00 0.00 0.00 40 1005.2
20260505163410 76 217 5.0 7.0 0.00 0.00 0.00 41 1005.5
20260505162908 77 268 7.0 12.0 0.00 0.00 0.00 40 1005.4
20260505162403 77 242 10.0 17.0 0.00 0.00 0.00 41 1005.5
20260505161901 77 243 11.0 15.0 0.00 0.00 0.00 41 1005.8
20260505161357 77 201 6.0 9.0 0.00 0.00 0.00 41 1005.7
20260505160855 77 204 4.0 7.0 0.00 0.00 0.00 41 1005.8
20260505160353 76 260 4.0 7.0 0.00 0.00 0.00 41 1005.9
20260505153325 72 185 3.0 7.0 0.00 0.00 0.00 45 1006.4
20260505152822 71 236 10.0 14.0 0.00 0.00 0.00 45 1006.3
20260505152319 71 239 7.0 9.0 0.00 0.00 0.00 45 1006.6
20260505151814 70 179 1.0 3.0 0.00 0.00 0.00 46 1006.5
20260505151311 70 146 0.0 2.0 0.00 0.00 0.00 46 1006.8
20260505150808 70 223 2.0 3.0 0.00 0.00 0.00 45 1006.7
20260505150305 69 114 3.0 5.0 0.00 0.00 0.00 47 1006.7
20260505140229 63 176 3.0 3.0 0.00 0.00 0.00 54 1006.5
20260505130153 60 176 1.0 3.0 0.00 0.00 0.00 60 1007.4
20260505124643 56 176 1.0 2.0 0.00 0.00 0.00 65 1007.5
20260505124139 56 177 0.0 2.0 0.00 0.00 0.00 65 1007.5
20260505123635 57 175 3.0 3.0 0.00 0.00 0.00 64 1007.4
20260505123132 57 173 2.0 3.0 0.00 0.00 0.00 64 1007.0
20260505122629 57 172 2.0 2.0 0.00 0.00 0.00 64 1006.9
20260505122126 57 172 1.0 2.0 0.00 0.00 0.00 64 1006.9
20260505121623 56 172 3.0 3.0 0.00 0.00 0.00 64 1006.9
20260505121119 55 172 3.0 3.0 0.00 0.00 0.00 66 1006.8
20260505120616 55 172 2.0 2.0 0.00 0.00 0.00 67 1006.8
20260505120112 54 172 2.0 3.0 0.00 0.00 0.00 68 1007.0
20260505115606 55 172 2.0 3.0 0.00 0.00 0.00 67 1007.2
20260505115104 55 172 0.0 2.0 0.00 0.00 0.00 68 1007.5
20260505114601 54 172 1.0 2.0 0.00 0.00 0.00 68 1007.0
20260505114057 54 172 2.0 3.0 0.00 0.00 0.00 68 1007.3
20260505113553 54 172 0.0 2.0 0.00 0.00 0.00 68 1007.3
20260505113050 54 172 2.0 2.0 0.00 0.00 0.00 67 1007.2
20260505112546 53 172 0.0 2.0 0.00 0.00 0.00 69 1007.3
20260505112044 53 172 2.0 2.0 0.00 0.00 0.00 68 1007.2
20260505111538 53 172 2.0 3.0 0.00 0.00 0.00 70 1007.0
20260505111034 53 172 3.0 3.0 0.00 0.00 0.00 70 1007.1
20260505110525 53 173 2.0 2.0 0.00 0.00 0.00 70 1007.3
20260505101957 50 173 0.0 2.0 0.00 0.00 0.00 76 1007.2
20260505101450 50 173 0.0 0.0 0.00 0.00 0.00 75 1007.1
20260505100946 50 173 0.0 0.0 0.00 0.00 0.00 75 1007.2
20260505100443 50 173 0.0 2.0 0.00 0.00 0.00 74 1007.1
20260505095938 50 173 0.0 0.0 0.00 0.00 0.00 74 1007.1
20260505095430 50 170 2.0 3.0 0.00 0.00 0.00 74 1007.2
20260505094926 50 168 2.0 2.0 0.00 0.00 0.00 74 1007.2
20260505094424 50 167 0.0 2.0 0.00 0.00 0.00 75 1007.1
20260505093920 49 160 1.0 2.0 0.00 0.00 0.00 76 1007.2
20260505093417 49 160 2.0 2.0 0.00 0.00 0.00 75 1007.0
20260505092914 49 158 2.0 2.0 0.00 0.00 0.00 75 1007.2
20260505092412 49 158 0.0 0.0 0.00 0.00 0.00 75 1007.2
20260505091909 49 158 1.0 2.0 0.00 0.00 0.00 75 1007.1
20260505091406 49 158 0.0 2.0 0.00 0.00 0.00 75 1007.1
20260505090904 49 158 0.0 2.0 0.00 0.00 0.00 74 1007.2
20260505090402 50 158 2.0 2.0 0.00 0.00 0.00 74 1007.1
20260505085859 50 158 0.0 3.0 0.00 0.00 0.00 73 1007.2
20260505085357 50 143 1.0 2.0 0.00 0.00 0.00 73 1007.2
20260505084855 50 89 0.0 2.0 0.00 0.00 0.00 72 1007.4
20260505084353 50 89 2.0 2.0 0.00 0.00 0.00 72 1007.3
20260505083850 51 88 0.0 2.0 0.00 0.00 0.00 71 1007.6
20260505083348 51 89 2.0 2.0 0.00 0.00 0.00 70 1007.4
20260505082844 51 88 1.0 2.0 0.00 0.00 0.00 70 1007.5
20260505082340 51 88 2.0 2.0 0.00 0.00 0.00 69 1007.5
20260505081837 51 88 0.0 0.0 0.00 0.00 0.00 69 1007.6
20260505081333 51 88 0.0 0.0 0.00 0.00 0.00 70 1007.6
20260505080830 51 88 0.0 0.0 0.00 0.00 0.00 70 1007.6
20260505080326 52 143 0.0 0.0 0.00 0.00 0.00 68 1007.6
20260505075822 53 140 2.0 2.0 0.00 0.00 0.00 67 1007.7
20260505075319 53 204 2.0 3.0 0.00 0.00 0.00 66 1007.7
20260505074816 52 99 0.0 2.0 0.00 0.00 0.00 67 1007.6
20260505074313 51 98 0.0 2.0 0.00 0.00 0.00 68 1007.7
20260505073811 52 85 1.0 2.0 0.00 0.00 0.00 69 1007.7
20260505073309 52 85 1.0 2.0 0.00 0.00 0.00 68 1007.6
20260505072805 52 86 0.0 2.0 0.00 0.00 0.00 67 1007.5
20260505072301 53 86 0.0 2.0 0.00 0.00 0.00 66 1007.5
20260505071757 53 86 0.0 2.0 0.00 0.00 0.00 66 1007.5
20260505071254 53 130 0.0 2.0 0.00 0.00 0.00 66 1007.5
20260505070752 53 123 2.0 2.0 0.00 0.00 0.00 65 1007.5
20260505070248 53 141 0.0 2.0 0.00 0.00 0.00 64 1007.5
20260505065743 53 95 0.0 2.0 0.00 0.00 0.00 66 1007.6
20260505065241 53 118 0.0 2.0 0.00 0.00 0.00 65 1007.5
20260505064738 53 118 0.0 2.0 0.00 0.00 0.00 65 1007.7
20260505064235 54 157 0.0 2.0 0.00 0.00 0.00 63 1007.7
20260505063732 55 197 2.0 3.0 0.00 0.00 0.00 61 1007.7
20260505063228 56 206 3.0 3.0 0.00 0.00 0.00 58 1007.5
20260505062725 57 225 3.0 5.0 0.00 0.00 0.00 57 1007.5
20260505062223 57 236 5.0 5.0 0.00 0.00 0.00 56 1007.4
20260505061720 58 233 4.0 5.0 0.00 0.00 0.00 56 1007.6
20260505061218 57 246 5.0 7.0 0.00 0.00 0.00 56 1007.4
20260505060715 57 206 1.0 3.0 0.00 0.00 0.00 56 1007.6
20260505060211 57 214 2.0 3.0 0.00 0.00 0.00 57 1007.4
20260505055707 57 229 2.0 3.0 0.00 0.00 0.00 58 1007.7
20260505055204 57 209 3.0 5.0 0.00 0.00 0.00 57 1007.6
20260505054701 57 206 3.0 5.0 0.00 0.00 0.00 56 1007.7
20260505054159 58 233 6.0 7.0 0.00 0.00 0.00 55 1007.5
20260505053656 59 225 4.0 7.0 0.00 0.00 0.00 53 1007.7
20260505053153 59 241 8.0 9.0 0.00 0.00 0.00 53 1007.4
20260505052650 59 213 3.0 7.0 0.00 0.00 0.00 55 1007.5
20260505052147 59 228 7.0 7.0 0.00 0.00 0.00 53 1007.4
20260505051644 59 247 8.0 9.0 0.00 0.00 0.00 53 1007.4
20260505051142 59 248 5.0 7.0 0.00 0.00 0.00 53 1007.3
20260505050639 59 229 5.0 9.0 0.00 0.00 0.00 53 1007.5
20260505050138 59 244 8.0 12.0 0.00 0.00 0.00 52 1007.5
20260505041607 59 257 7.0 9.0 0.00 0.00 0.00 50 1007.2
20260505041105 59 234 7.0 10.0 0.00 0.00 0.00 50 1006.9
20260505040602 59 241 9.0 12.0 0.00 0.00 0.00 50 1007.0
20260505040059 59 230 5.0 7.0 0.00 0.00 0.00 51 1006.9
20260505035555 58 195 3.0 5.0 0.00 0.00 0.00 50 1006.8
20260505035052 58 194 4.0 5.0 0.00 0.00 0.00 50 1006.8
20260505034548 58 178 2.0 3.0 0.00 0.00 0.00 50 1006.6
20260505034045 59 166 2.0 2.0 0.00 0.00 0.00 50 1006.7
20260505033542 59 195 5.0 7.0 0.00 0.00 0.00 50 1006.5
20260505033040 62 157 2.0 9.0 0.00 0.00 0.00 45 1006.7
20260505032538 62 207 4.0 7.0 0.00 0.00 0.00 44 1006.5
20260505032034 61 208 4.0 5.0 0.00 0.00 0.00 43 1006.6
20260505031531 62 207 4.0 7.0 0.00 0.00 0.00 43 1006.5
20260505031027 62 209 3.0 7.0 0.00 0.00 0.00 43 1006.4
20260505030525 62 205 5.0 5.0 0.00 0.00 0.00 43 1006.5
20260505030021 61 219 5.0 7.0 0.00 0.00 0.00 45 1006.5
20260505025517 61 232 5.0 7.0 0.00 0.00 0.00 46 1006.5
20260505025016 61 207 4.0 7.0 0.00 0.00 0.00 44 1006.6
20260505024512 61 217 4.0 5.0 0.00 0.00 0.00 45 1006.7
20260505024009 61 218 5.0 5.0 0.00 0.00 0.00 47 1006.7
20260505023506 61 213 4.0 5.0 0.00 0.00 0.00 45 1006.6
20260505023004 61 211 3.0 3.0 0.00 0.00 0.00 44 1006.8
20260505022502 61 212 4.0 5.0 0.00 0.00 0.00 44 1006.6
20260505021958 61 210 3.0 5.0 0.00 0.00 0.00 43 1006.7
20260505021455 60 207 3.0 5.0 0.00 0.00 0.00 45 1006.6
20260505020950 60 198 3.0 5.0 0.00 0.00 0.00 45 1006.6
20260505020446 61 233 0.0 0.0 0.00 0.00 0.00 50 1006.5
20260505015943 62 234 3.0 5.0 0.00 0.00 0.00 43 1006.6
20260505015440 63 233 3.0 7.0 0.00 0.00 0.00 41 1006.4
20260505014937 63 219 5.0 5.0 0.00 0.00 0.00 42 1006.5
20260505014434 62 213 4.0 5.0 0.00 0.00 0.00 42 1006.3
20260505013931 62 207 3.0 3.0 0.00 0.00 0.00 42 1006.4
20260505013428 63 207 3.0 3.0 0.00 0.00 0.00 42 1006.3
20260505012926 63 207 3.0 5.0 0.00 0.00 0.00 41 1006.3
20260505012424 63 214 5.0 5.0 0.00 0.00 0.00 41 1006.2
20260505011920 63 233 3.0 5.0 0.00 0.00 0.00 42 1006.1
20260505011416 63 234 3.0 5.0 0.00 0.00 0.00 41 1006.2
20260505010913 63 212 3.0 5.0 0.00 0.00 0.00 41 1006.1
20260505010409 64 233 5.0 7.0 0.00 0.00 0.00 40 1006.2
20260505005905 63 218 5.0 5.0 0.00 0.00 0.00 41 1005.9
20260505005402 63 217 4.0 5.0 0.00 0.00 0.00 42 1005.9
20260505004859 63 217 5.0 7.0 0.00 0.00 0.00 40 1006.0
20260505004356 64 217 5.0 5.0 0.00 0.00 0.00 41 1006.0
20260505003853 63 216 4.0 5.0 0.00 0.00 0.00 41 1005.7
20260505003350 63 215 4.0 5.0 0.00 0.00 0.00 41 1005.4
20260505002846 63 213 4.0 5.0 0.00 0.00 0.00 41 1005.6
20260505002343 64 212 5.0 5.0 0.00 0.00 0.00 41 1005.3
20260505001842 63 209 4.0 5.0 0.00 0.00 0.00 41 1005.3
20260505001338 64 208 2.0 3.0 0.00 0.00 0.00 40 1005.3
20260505000835 64 208 2.0 3.0 0.00 0.00 0.00 40 1005.3
20260505000333 64 208 3.0 3.0 0.00 0.00 0.00 40 1005.2
20260504235829 64 209 4.0 5.0 0.00 0.00 0.00 39 1005.3
20260504235327 64 204 2.0 3.0 0.00 0.00 0.00 40 1005.1
20260504234823 65 204 4.0 5.0 0.00 0.00 0.00 39 1005.0
20260504234321 65 203 0.0 2.0 0.00 0.00 0.00 40 1005.0
20260504233817 65 204 3.0 3.0 0.00 0.00 0.00 39 1004.9
20260504233313 65 204 3.0 5.0 0.00 0.00 0.00 38 1005.0
20260504232810 65 226 3.0 3.0 0.00 0.00 0.00 38 1004.9
20260504232307 66 227 0.0 3.0 0.00 0.00 0.00 39 1004.8
20260504231804 66 228 4.0 5.0 0.00 0.00 0.00 38 1004.9
20260504231300 66 233 3.0 5.0 0.00 0.00 0.00 37 1004.7
20260504230756 66 233 3.0 3.0 0.00 0.00 0.00 39 1004.6
20260504230254 67 247 5.0 5.0 0.00 0.00 0.00 37 1004.6
20260504225753 67 262 7.0 7.0 0.00 0.00 0.00 36 1004.5
20260504225249 67 261 5.0 7.0 0.00 0.00 0.00 37 1004.6
20260504224746 68 245 4.0 5.0 0.00 0.00 0.00 36 1004.3
20260504224243 67 238 3.0 3.0 0.00 0.00 0.00 37 1004.2
20260504223740 67 237 2.0 3.0 0.00 0.00 0.00 38 1004.1
20260504223235 67 258 3.0 5.0 0.00 0.00 0.00 37 1004.4
20260504222733 67 243 4.0 7.0 0.00 0.00 0.00 37 1004.3
20260504222229 67 241 4.0 5.0 0.00 0.00 0.00 37 1004.3
20260504221727 66 257 3.0 5.0 0.00 0.00 0.00 38 1004.2
20260504221224 67 240 5.0 5.0 0.00 0.00 0.00 38 1004.1
20260504220720 66 258 5.0 7.0 0.00 0.00 0.00 36 1004.4
20260504220218 67 266 4.0 7.0 0.00 0.00 0.00 36 1004.2
20260504215714 66 281 4.0 5.0 0.00 0.00 0.00 35 1004.3
20260504215211 66 266 5.0 7.0 0.00 0.00 0.00 36 1004.2
20260504214707 66 255 5.0 7.0 0.00 0.00 0.00 37 1004.2
20260504214204 67 277 10.0 12.0 0.00 0.00 0.00 36 1004.2
20260504213700 67 265 9.0 12.0 0.00 0.00 0.00 35 1004.2
20260504213157 69 266 8.0 10.0 0.00 0.00 0.00 35 1004.0
20260504212654 68 317 7.0 15.0 0.00 0.00 0.00 34 1004.2
20260504212150 68 245 9.0 10.0 0.00 0.00 0.00 34 1004.1
20260504211648 69 257 8.0 10.0 0.00 0.00 0.00 35 1004.2
20260504211144 69 278 5.0 9.0 0.00 0.00 0.00 36 1004.2
20260504210642 68 250 7.0 12.0 0.00 0.00 0.00 34 1004.0
20260504210138 68 267 7.0 9.0 0.00 0.00 0.00 36 1004.0
20260504205636 67 257 9.0 10.0 0.00 0.00 0.00 36 1004.1
20260504205133 67 249 7.0 10.0 0.00 0.00 0.00 39 1004.0
20260504204632 67 289 10.0 14.0 0.00 0.00 0.00 37 1004.1
20260504204130 68 266 9.0 14.0 0.00 0.00 0.00 35 1004.1
20260504203628 68 273 11.0 14.0 0.00 0.00 0.00 36 1004.2
20260504203125 68 233 14.0 17.0 0.00 0.00 0.00 35 1004.2
20260504202620 67 325 10.0 17.0 0.00 0.00 0.00 36 1004.0
20260504202117 67 269 10.0 14.0 0.00 0.00 0.00 37 1004.3
20260504201614 67 255 8.0 15.0 0.00 0.00 0.00 38 1004.2
20260504201112 67 273 8.0 9.0 0.00 0.00 0.00 37 1004.2
20260504200609 66 266 11.0 17.0 0.00 0.00 0.00 38 1004.2
20260504200105 66 252 9.0 15.0 0.00 0.00 0.00 38 1004.4
20260504195601 66 305 15.0 19.0 0.00 0.00 0.00 39 1004.5
20260504195057 66 270 9.0 10.0 0.00 0.00 0.00 39 1004.3
20260504194554 67 266 11.0 15.0 0.00 0.00 0.00 38 1004.5
20260504194050 66 274 11.0 17.0 0.00 0.00 0.00 39 1004.8
20260504193547 66 282 9.0 10.0 0.00 0.00 0.00 39 1004.4
20260504193045 66 268 13.0 15.0 0.00 0.00 0.00 41 1004.7
20260504192543 66 310 11.0 15.0 0.00 0.00 0.00 42 1004.8
20260504192041 65 279 8.0 15.0 0.00 0.00 0.00 41 1004.6
20260504191538 65 293 8.0 10.0 0.00 0.00 0.00 41 1004.7
20260504191034 64 278 4.0 12.0 0.00 0.00 0.00 45 1004.7
20260504190531 63 311 2.0 3.0 0.00 0.00 0.00 45 1004.8
20260504190027 62 339 3.0 3.0 0.00 0.00 0.00 46 1004.8
20260504185525 62 270 4.0 9.0 0.00 0.00 0.00 46 1005.0
20260504185021 62 312 3.0 5.0 0.00 0.00 0.00 47 1005.0
20260504184516 62 272 5.0 12.0 0.00 0.00 0.00 45 1005.1